SL-14 DEB

Satellite information

Favourite Embed

Satellite Type and Status

DEBRISIN ORBIT

Key statistics

Satellite SL-14 DEB at a glance.

Uptime

12322

Days in orbit

Revolutions

≈ 13.7

Per day

Orbit

LEO

Low Earth Orbit

Inclination

82.6

Latest

Satellite identification and parameters

Extended collection of information and parameters for SL-14 DEB.

Object identification

Identified? True

Debris? True

Object name: SL-14 DEB

International designator: 1991-056T

Object number (NORAD): 45281

Object ID (CCSDS): 45281

Country: COMMONWEALTH OF INDEPENDENT STATES (CIS)

Current information (Y/N): Y

RCS size: SMALL

Orbital parameters

Period: 104.786 minutes

Inclination: 82.571 deg

SMA: 7362.552 km

Apoapsis: 1097.387 km

Periapsis: 871.448 km

RAAN: 328.8248 deg

Eccentricy: 0.0153438

Argument of periapsis: 359.447 deg

Mean anomaly: 0.649 deg

Mean motion: 13.74232386 rev/day

Mean motion (dot): 0.00008326 rev/day2

B* drag term: 0.0081009 1/REarth

Two-line elements (TLE)

Creation date: May 9, 2025, 2:46 a.m.

Reference frame: TEME

Reference center: EARTH

Epoch: May 8, 2025, 2:02 p.m. UTC

TLE line 0: 0 SL-14 DEB

TLE line 1: 1 45281U 91056T 25128.58474312 .00008326 00000-0 81009-2 0 9992

TLE line 2: 2 45281 82.5710 328.8248 0153438 359.4470 0.6490 13.74232386259167

Live tracking on map

Real-time ground track for satellite SL-14 DEB.

In-orbit conjunctions

A list of the most updated potential collisions computed for object SL-14 DEB.

Target Orbit TCA Probability of collision Miss distance Type
FENGYUN 1C DEB SSO 2024-09-26 20:13:30 0.000153838 591.0 (m) DEBRIS
COBE SSO 2024-09-21 16:21:58 0.0001083677 253.0 (m) PAYLOAD

Associated space launch

Third generation meteorological satellite

SL-14 DEB was lifted into orbit during the mission ‘Tsiklon-3 | Meteor-3 5’, on board a Tsiklon-3 space rocket.

The launch took place on Aug. 15, 1991, 9:15 a.m. from 32/2.

For more information about the launch, click the button.

Launch to space Tsiklon-3 | Meteor-3 5
Tsiklon-3 | Meteor-3 5

Agency: N/A

Status: Launch Successful

Launch date: Aug. 15, 1991, 9:15 a.m. UTC

Rocket: Tsiklon-3

Launch pad: 32/2

Location: Plesetsk Cosmodrome, Russian Federation

...

Latest news about this satellite

There are no fresh news available about this satellite. Check back as we update our databases every day.


Newsletter sign-up

Weekly statistics, charts and insights to help you stay on top of the space industry.